| time (UTC) | temp C | wind direction | speed KPH | gust KPH | rain 1hr cm | rain 24hr cm | rain mn cm | humidity % | barometer mb |
| 20260906203054 | 24 | 242 | 1.6 | 20.9 | 0.00 | 0.00 | 0.00 | 65 | 1020.5 |
| 20260906201550 | 24 | 214 | 6.4 | 16.1 | 0.00 | 0.00 | 0.00 | 62 | 1020.5 |
| 20260906200052 | 24 | 201 | 4.8 | 16.1 | 0.00 | 0.00 | 0.00 | 63 | 1020.6 |
| 20260906194554 | 24 | 233 | 8.0 | 19.3 | 0.00 | 0.00 | 0.00 | 64 | 1020.6 |
| 20260906193053 | 25 | 237 | 3.2 | 14.5 | 0.00 | 0.00 | 0.00 | 63 | 1020.9 |
| 20260906191555 | 25 | 238 | 3.2 | 16.1 | 0.00 | 0.00 | 0.00 | 63 | 1020.8 |
| 20260906190055 | 25 | 222 | 3.2 | 14.5 | 0.00 | 0.00 | 0.00 | 54 | 1020.9 |
| 20260906184555 | 25 | 191 | 3.2 | 14.5 | 0.00 | 0.00 | 0.00 | 54 | 1021.0 |
| 20260906183047 | 25 | 222 | 6.4 | 14.5 | 0.00 | 0.00 | 0.00 | 51 | 1021.0 |
| 20260906181600 | 25 | 220 | 6.4 | 17.7 | 0.00 | 0.00 | 0.00 | 51 | 1021.0 |
| 20260906180056 | 25 | 212 | 6.4 | 16.1 | 0.00 | 0.00 | 0.00 | 54 | 1021.1 |
| 20260906174552 | 25 | 239 | 1.6 | 16.1 | 0.00 | 0.00 | 0.00 | 55 | 1021.0 |
| 20260906173052 | 25 | 230 | 6.4 | 12.9 | 0.00 | 0.00 | 0.00 | 53 | 1021.0 |
| 20260906171559 | 25 | 238 | 1.6 | 12.9 | 0.00 | 0.00 | 0.00 | 56 | 1021.1 |
| 20260906170053 | 24 | 0 | 3.2 | 14.5 | 0.00 | 0.00 | 0.00 | 62 | 1021.2 |
| 20260906164549 | 24 | 213 | 6.4 | 11.3 | 0.00 | 0.00 | 0.00 | 59 | 1021.3 |
| 20260906163059 | 23 | 190 | 1.6 | 12.9 | 0.00 | 0.00 | 0.00 | 62 | 1021.4 |
| 20260906161556 | 23 | 187 | 4.8 | 11.3 | 0.00 | 0.00 | 0.00 | 65 | 1021.7 |
| 20260906160053 | 23 | 0 | 1.6 | 8.0 | 0.00 | 0.00 | 0.00 | 62 | 1021.7 |
| 20260906154555 | 23 | 200 | 1.6 | 8.0 | 0.00 | 0.00 | 0.00 | 69 | 1021.8 |
| 20260906153045 | 22 | 192 | 1.6 | 8.0 | 0.00 | 0.00 | 0.00 | 72 | 1021.8 |
| 20260906151602 | 22 | 191 | 0.0 | 9.7 | 0.00 | 0.00 | 0.00 | 72 | 1021.7 |
| 20260906150059 | 22 | 149 | 3.2 | 8.0 | 0.00 | 0.00 | 0.00 | 73 | 1021.7 |
| 20260906144604 | 22 | 0 | 0.0 | 4.8 | 0.00 | 0.00 | 0.00 | 74 | 1021.7 |
| 20260906143108 | 21 | 0 | 0.0 | 3.2 | 0.00 | 0.00 | 0.00 | 74 | 1021.6 |
| 20260906141554 | 21 | 0 | 0.0 | 0.0 | 0.00 | 0.00 | 0.00 | 68 | 1021.5 |
| 20260906140047 | 20 | 0 | 0.0 | 0.0 | 0.00 | 0.00 | 0.00 | 75 | 1021.7 |
| 20260906134555 | 18 | 0 | 0.0 | 1.6 | 0.00 | 0.00 | 0.00 | 86 | 1021.5 |
| 20260906133101 | 16 | 0 | 0.0 | 3.2 | 0.00 | 0.00 | 0.00 | 97 | 1021.4 |
| 20260906131557 | 14 | 0 | 0.0 | 6.4 | 0.00 | 0.00 | 0.00 | 100 | 1021.5 |
| 20260906130048 | 12 | 35 | 3.2 | 6.4 | 0.00 | 0.00 | 0.00 | 100 | 1021.5 |
| 20260906124555 | 10 | 35 | 1.6 | 6.4 | 0.00 | 0.00 | 0.00 | 100 | 1021.4 |
| 20260906123054 | 8 | 35 | 3.2 | 8.0 | 0.00 | 0.00 | 0.00 | 100 | 1021.3 |
| 20260906121548 | 8 | 35 | 3.2 | 6.4 | 0.00 | 0.00 | 0.00 | 99 | 1021.4 |
| 20260906120045 | 7 | 35 | 3.2 | 6.4 | 0.00 | 0.00 | 0.00 | 99 | 1021.3 |
| 20260906114556 | 7 | 35 | 3.2 | 4.8 | 0.00 | 0.00 | 0.00 | 99 | 1021.0 |
| 20260906113053 | 7 | 35 | 1.6 | 6.4 | 0.00 | 0.00 | 0.00 | 98 | 1020.9 |
| 20260906111549 | 7 | 35 | 3.2 | 4.8 | 0.00 | 0.00 | 0.00 | 98 | 1020.9 |
| 20260906110053 | 7 | 35 | 0.0 | 4.8 | 0.00 | 0.00 | 0.00 | 98 | 1020.7 |
| 20260906104550 | 8 | 0 | 0.0 | 4.8 | 0.00 | 0.00 | 0.00 | 98 | 1020.8 |
| 20260906103057 | 8 | 35 | 1.6 | 6.4 | 0.00 | 0.00 | 0.00 | 98 | 1020.7 |
| 20260906101543 | 8 | 35 | 3.2 | 4.8 | 0.00 | 0.00 | 0.00 | 98 | 1020.7 |
| 20260906100052 | 8 | 0 | 0.0 | 6.4 | 0.00 | 0.00 | 0.00 | 98 | 1020.8 |
| 20260906094559 | 8 | 35 | 4.8 | 6.4 | 0.00 | 0.00 | 0.00 | 98 | 1020.7 |
| 20260906093113 | 8 | 35 | 4.8 | 6.4 | 0.00 | 0.00 | 0.00 | 98 | 1020.7 |
| 20260906091557 | 8 | 35 | 1.6 | 6.4 | 0.00 | 0.00 | 0.00 | 98 | 1020.7 |
| 20260906090058 | 9 | 35 | 3.2 | 8.0 | 0.00 | 0.00 | 0.00 | 98 | 1020.6 |
| 20260906084551 | 9 | 35 | 3.2 | 8.0 | 0.00 | 0.00 | 0.00 | 97 | 1020.5 |
| 20260906083056 | 9 | 35 | 3.2 | 6.4 | 0.00 | 0.00 | 0.00 | 97 | 1020.6 |
| 20260906081555 | 9 | 35 | 3.2 | 8.0 | 0.00 | 0.00 | 0.00 | 97 | 1020.4 |
| 20260906080055 | 9 | 35 | 3.2 | 8.0 | 0.00 | 0.00 | 0.00 | 97 | 1020.2 |
| 20260906074550 | 9 | 35 | 4.8 | 8.0 | 0.00 | 0.00 | 0.00 | 97 | 1020.1 |
| 20260906073057 | 9 | 35 | 3.2 | 6.4 | 0.00 | 0.00 | 0.00 | 97 | 1020.0 |
| 20260906071606 | 10 | 36 | 1.6 | 4.8 | 0.00 | 0.00 | 0.00 | 97 | 1020.0 |
| 20260906070050 | 10 | 35 | 1.6 | 6.4 | 0.00 | 0.00 | 0.00 | 96 | 1020.0 |
| 20260906064555 | 10 | 35 | 3.2 | 6.4 | 0.00 | 0.00 | 0.00 | 96 | 1019.7 |
| 20260906063055 | 10 | 35 | 1.6 | 4.8 | 0.00 | 0.00 | 0.00 | 96 | 1019.8 |
| 20260906061554 | 10 | 35 | 3.2 | 6.4 | 0.00 | 0.00 | 0.00 | 96 | 1019.8 |
| 20260906060101 | 11 | 35 | 1.6 | 6.4 | 0.00 | 0.00 | 0.00 | 96 | 1019.6 |
| 20260906054558 | 11 | 35 | 3.2 | 6.4 | 0.00 | 0.00 | 0.00 | 96 | 1019.7 |
| 20260906053051 | 11 | 35 | 0.0 | 4.8 | 0.00 | 0.00 | 0.00 | 96 | 1019.5 |
| 20260906051558 | 11 | 35 | 3.2 | 8.0 | 0.00 | 0.00 | 0.00 | 96 | 1019.5 |
| 20260906050116 | 12 | 36 | 3.2 | 8.0 | 0.00 | 0.00 | 0.00 | 96 | 1019.4 |
| 20260906044555 | 12 | 36 | 3.2 | 8.0 | 0.00 | 0.00 | 0.00 | 95 | 1019.4 |
| 20260906043059 | 12 | 36 | 4.8 | 8.0 | 0.00 | 0.00 | 0.00 | 95 | 1019.2 |
| 20260906041554 | 12 | 36 | 3.2 | 6.4 | 0.00 | 0.00 | 0.00 | 95 | 1019.1 |
| 20260906040058 | 12 | 37 | 3.2 | 9.7 | 0.00 | 0.00 | 0.00 | 94 | 1019.1 |
| 20260906034554 | 13 | 270 | 3.2 | 6.4 | 0.00 | 0.00 | 0.00 | 94 | 1019.1 |
| 20260906033048 | 13 | 0 | 1.6 | 3.2 | 0.00 | 0.00 | 0.00 | 94 | 1019.1 |
| 20260906031555 | 13 | 0 | 0.0 | 1.6 | 0.00 | 0.00 | 0.00 | 94 | 1018.8 |
| 20260906030112 | 14 | 0 | 0.0 | 4.8 | 0.00 | 0.00 | 0.00 | 94 | 1018.7 |
| 20260906024550 | 14 | 270 | 3.2 | 9.7 | 0.00 | 0.00 | 0.00 | 93 | 1018.7 |
| 20260906023053 | 15 | 270 | 4.8 | 9.7 | 0.00 | 0.00 | 0.00 | 92 | 1018.7 |
| 20260906021608 | 15 | 270 | 0.0 | 4.8 | 0.00 | 0.00 | 0.00 | 92 | 1018.7 |
| 20260906020053 | 15 | 270 | 0.0 | 9.7 | 0.00 | 0.00 | 0.00 | 92 | 1018.5 |
| 20260906014546 | 16 | 270 | 4.8 | 9.7 | 0.00 | 0.00 | 0.00 | 92 | 1018.6 |
| 20260906013053 | 16 | 270 | 3.2 | 9.7 | 0.00 | 0.00 | 0.00 | 91 | 1018.4 |
| 20260906011553 | 16 | 269 | 4.8 | 9.7 | 0.00 | 0.00 | 0.00 | 90 | 1018.3 |
| 20260906010051 | 17 | 0 | 1.6 | 4.8 | 0.00 | 0.00 | 0.00 | 88 | 1018.2 |
| 20260906004558 | 18 | 0 | 0.0 | 1.6 | 0.00 | 0.00 | 0.00 | 87 | 1018.2 |
| 20260906003106 | 18 | 0 | 0.0 | 1.6 | 0.00 | 0.00 | 0.00 | 85 | 1018.2 |
| 20260906001554 | 19 | 0 | 0.0 | 0.0 | 0.00 | 0.00 | 0.00 | 82 | 1018.2 |
| 20260906000050 | 20 | 0 | 0.0 | 0.0 | 0.00 | 0.00 | 0.00 | 79 | 1018.1 |
| 20260905234554 | 21 | 0 | 0.0 | 0.0 | 0.00 | 0.00 | 0.00 | 77 | 1018.2 |
| 20260905233054 | 22 | 0 | 0.0 | 1.6 | 0.00 | 0.00 | 0.00 | 74 | 1018.1 |
| 20260905231554 | 22 | 0 | 0.0 | 8.0 | 0.00 | 0.00 | 0.00 | 68 | 1018.2 |
| 20260905230053 | 23 | 232 | 3.2 | 9.7 | 0.00 | 0.00 | 0.00 | 64 | 1018.2 |
| 20260905224555 | 23 | 233 | 1.6 | 8.0 | 0.00 | 0.00 | 0.00 | 65 | 1018.0 |
| 20260905223054 | 23 | 208 | 0.0 | 12.9 | 0.00 | 0.00 | 0.00 | 64 | 1018.0 |
| 20260905221554 | 24 | 0 | 3.2 | 12.9 | 0.00 | 0.00 | 0.00 | 65 | 1017.8 |
| 20260905220100 | 25 | 229 | 1.6 | 11.3 | 0.00 | 0.00 | 0.00 | 64 | 1017.7 |
| 20260905214606 | 25 | 0 | 0.0 | 16.1 | 0.00 | 0.00 | 0.00 | 62 | 1017.4 |
| 20260905213114 | 26 | 229 | 1.6 | 8.0 | 0.00 | 0.00 | 0.00 | 56 | 1017.4 |
| 20260905211600 | 25 | 213 | 1.6 | 11.3 | 0.00 | 0.00 | 0.00 | 58 | 1017.3 |
| 20260905210052 | 26 | 0 | 1.6 | 14.5 | 0.00 | 0.00 | 0.00 | 56 | 1017.3 |
| 20260905204550 | 26 | 207 | 4.8 | 17.7 | 0.00 | 0.00 | 0.00 | 53 | 1017.5 |